Regional Weather Roundup
Issued by NWS

Home | Current Version | Previous Version | Text Only | Print | Product List | Glossary On
Versions: 1 2 3 4 5 6 7 8 9 10 11 12 13 14 15 16 17 18 19 20 21 22 23 24 25 26 27
000
ASUS46 KPQR 191410
RWROR

OREGON REGIONAL WEATHER ROUNDUP
NATIONAL WEATHER SERVICE PORTLAND OR
600 AM PST THU JAN 19 2017

NOTE: "FAIR" INDICATES FEW OR NO CLOUDS BELOW 12,000 FEET WITH
NO SIGNIFICANT WEATHER AND/OR OBSTRUCTIONS TO VISIBILITY.

ORZ001>013-191500-
NORTHWEST OREGON


CITY           SKY/WX    TMP DP  RH WIND       PRES   REMARKS
ASTORIA        CLOUDY    50  43  77 S15G25    29.47R
NEWPORT        MOCLDY    46  43  87 S15G26    29.59R
PORTLAND       MOCLDY    36  34  92 SE12      29.57R WCI  28
VANCOUVER WA   CLOUDY    39  35  86 SE5       29.57R
SCAPPOOSE      CLOUDY    41  39  93 CALM      29.55R
HILLSBORO      MOCLDY    45  41  86 S10       29.54R
AURORA         MOCLDY    47  40  76 S14       29.57R
MCMINNVILLE    CLOUDY    46  41  82 S16       29.57R
SALEM          CLOUDY    47  39  74 S14G22    29.57R
CORVALLIS        N/A     45  39  81 S13       29.59R
EUGENE         MOCLDY    44  40  85 S14       29.62R
$$

ORZ021-028-191500-
SOUTHWEST OREGON


CITY           SKY/WX    TMP DP  RH WIND       PRES   REMARKS
NORTH BEND     MOCLDY    46  45  93 S7        29.64R
BROOKINGS      LGT RAIN  45  44  97 SE3       29.69R
ROSEBURG       CLOUDY    43  42  97 CALM      29.65R
SEXTON SUMMIT  SNOW      31  30  96 S14G21    29.59R VSB 1/4 WCI  21
MEDFORD        LGT RAIN  39  39 100 CALM      29.66S FOG
$$

ORZ014>016-041-191500-
COLUMBIA GORGE


CITY           SKY/WX    TMP DP  RH WIND       PRES   REMARKS
TROUTDALE      MOCLDY    36  34  92 NE7       29.58R WCI  30
THE DALLES     MOCLDY    28  27  96 S6        29.62R FOG     WCI  22
$$

ORZ029>031-041-044-049-050-061>064-502-503-505>511-191500-
EASTERN OREGON


CITY           SKY/WX    TMP DP  RH WIND       PRES   REMARKS
REDMOND        PTCLDY    35  28  75 S6        29.56R WCI  30
BEND           PTCLDY    36  30  80 SW10      29.56S WCI  28
PRINEVILLE     MOCLDY    34  30  86 N6        29.57R WCI  29
KLAMATH FALLS  MOCLDY    31  30  96 SE3       29.63R
LAKEVIEW       CLOUDY    30  28  93 S16       29.66R WCI  19
HERMISTON      CLOUDY    31  29  92 CALM      29.57R FOG
PENDLETON      CLOUDY    38  33  82 E5        29.56R WCI  34
JOHN DAY       LGT SNOW  35  34  96 CALM      29.59R
MEACHAM        FLURRIES  31  27  85 CALM      29.56R
LA GRANDE      CLOUDY    36  30  80 S10       29.60R WCI  28
BAKER CITY     CLOUDY    27  27 100 E5        29.61S WCI  22
BURNS          FLURRIES  33  31  92 S8        29.60R WCI  26
ROME             N/A     37  32  82 SE9       29.60R WCI  30
ONTARIO        SNOW      26  24  92 W7        29.68F VSB 1/2 WCI  18
$$




USA.gov is the U.S. government's official web portal to all federal, state and local government web resources and services.